PBO Station Position Time Series. Reference Frame : NAM14
Format Version,1.1.0
4-character ID,SG24
Station name,FRED_BRGN_AZ1999
Begin Date, 2002-04-12
End Date, 2011-08-25
Release Date, 2021-02-19
Reference position, 40.0542260967 North Latitude, -105.5884610733 East Longitude, 3510.84988 meters elevation,
Date, North (mm), East (mm), Vertical (mm), North Std. Deviation (mm), East Std. Deviation (mm),              Vertical Std. Deviation (mm), Quality,
2002-04-12,0.00, 0.00, 0.00, 2.39, 1.87, 8.37, repro,
2002-04-13,0.10, -2.94, 8.84, 2.18, 1.80, 7.87, repro,
2002-04-14,-2.36, -2.90, 16.08, 2.16, 1.74, 7.69, repro,
2002-04-15,-0.66, -2.25, 16.21, 2.17, 1.80, 7.89, repro,
2002-04-16,-0.57, 0.06, 13.29, 2.15, 1.80, 7.88, repro,
2002-04-17,-0.68, 0.68, 23.43, 2.50, 2.16, 9.17, repro,
2002-04-18,0.17, -0.23, 17.11, 2.25, 1.88, 8.32, repro,
2002-04-19,-0.82, 1.35, 17.12, 2.13, 1.82, 7.84, repro,
2002-04-20,0.02, 0.14, 24.73, 2.19, 1.90, 8.23, repro,
2002-04-21,-0.24, -1.86, 23.00, 2.13, 1.81, 8.01, repro,
2002-04-22,-0.70, -2.46, 17.56, 2.17, 1.87, 8.24, repro,
2002-04-23,-0.92, -0.76, 3.46, 2.09, 1.78, 7.82, repro,
2002-04-24,-0.90, -2.35, 21.62, 2.13, 1.80, 7.96, repro,
2002-04-25,-1.02, 1.88, 9.94, 2.11, 1.81, 7.95, repro,
2002-04-26,1.74, 0.13, -5.28, 2.11, 1.86, 7.97, repro,
2002-04-27,0.45, 0.09, 13.13, 2.09, 1.77, 7.86, repro,
2002-04-28,-0.41, 1.67, 19.18, 2.08, 1.75, 7.76, repro,
2002-04-29,-0.27, -1.11, 11.60, 2.14, 1.81, 8.07, repro,
2002-04-30,-0.45, 1.87, 11.19, 2.16, 1.83, 8.00, repro,
2002-05-01,-1.04, 1.96, 16.58, 2.14, 1.83, 7.98, repro,
2002-05-02,-0.71, 0.22, 9.97, 2.11, 1.77, 7.82, repro,
2002-05-03,-1.00, -2.10, 7.69, 2.08, 1.74, 7.67, repro,
2002-05-04,-1.37, -1.16, 5.42, 2.09, 1.76, 7.79, repro,
2002-05-12,-3.49, -2.05, 13.98, 2.14, 1.75, 7.63, repro,
2002-05-13,-3.40, 0.24, 7.59, 2.14, 1.76, 7.65, repro,
2002-05-14,-1.91, 1.13, 10.08, 2.14, 1.78, 7.80, repro,
2002-05-15,0.36, -0.05, 13.43, 2.14, 1.78, 7.72, repro,
2002-05-16,-0.55, -0.14, 18.88, 2.09, 1.73, 7.53, repro,
2002-05-17,-0.18, 1.12, 9.02, 2.11, 1.75, 7.59, repro,
2002-05-18,-2.25, 3.51, 12.23, 2.15, 1.77, 7.78, repro,
2002-05-19,-0.74, 1.31, 10.64, 2.13, 1.75, 7.56, repro,
2002-05-20,0.62, 2.97, 15.46, 2.11, 1.72, 7.57, repro,
2002-05-21,0.44, 0.67, 26.32, 2.12, 1.71, 7.59, repro,
2002-05-22,-1.88, 0.67, 16.52, 2.08, 1.71, 7.48, repro,
2002-05-23,0.75, 0.11, 15.35, 2.14, 1.74, 7.68, repro,
2002-05-24,-4.71, 0.33, 26.08, 2.37, 1.84, 8.47, repro,
2002-05-25,-4.13, -2.76, 7.63, 2.16, 1.79, 7.76, repro,
2002-05-26,-2.48, -0.84, 28.04, 2.16, 1.77, 7.77, repro,
2002-05-27,0.23, 1.69, 13.75, 2.17, 1.76, 7.78, repro,
2002-05-28,0.09, 0.63, 11.59, 2.22, 1.87, 8.09, repro,
2002-05-29,0.43, -2.74, 12.31, 2.16, 1.77, 7.74, repro,
2002-05-30,0.65, -1.29, 13.57, 2.22, 1.85, 8.01, repro,
2002-05-31,-0.61, -1.13, 20.22, 2.24, 1.87, 7.95, repro,
2002-06-01,0.24, 1.06, 21.09, 2.29, 1.90, 8.15, repro,
2002-06-02,0.67, -0.15, 12.61, 2.13, 1.78, 7.64, repro,
2002-06-03,0.71, 0.09, 18.98, 2.25, 1.93, 8.36, repro,
2002-06-04,6.15, 4.45, -4.47, 2.19, 1.81, 7.98, repro,
2002-06-05,-3.02, -0.56, 8.68, 2.26, 1.78, 8.22, repro,
2002-06-06,3.58, -3.22, 1.30, 2.27, 1.81, 8.07, repro,
2002-06-07,1.28, 0.87, 15.02, 2.29, 1.85, 8.22, repro,
2002-06-08,0.06, 0.07, 16.21, 2.20, 1.85, 8.09, repro,
2002-06-09,-0.63, -0.34, 18.73, 2.18, 1.79, 8.09, repro,
2002-06-10,1.68, -0.67, 18.41, 2.19, 1.80, 7.84, repro,
2002-06-11,3.55, -0.55, 13.48, 2.19, 1.80, 7.86, repro,
2002-06-12,1.73, 1.98, 10.25, 2.24, 1.86, 8.17, repro,
2002-06-13,-0.72, 0.77, 15.09, 2.18, 1.82, 7.91, repro,
2002-06-14,-0.92, 0.80, 19.30, 2.29, 1.94, 8.31, repro,
2002-06-15,0.32, 1.48, 16.95, 2.14, 1.79, 7.78, repro,
2002-06-16,1.50, 0.57, 15.59, 2.20, 1.81, 8.10, repro,
2002-06-17,-0.49, 2.09, 19.27, 2.20, 1.80, 7.91, repro,
2002-06-18,1.32, 2.60, 11.29, 2.23, 1.81, 7.86, repro,
2002-06-19,-0.28, 0.23, 19.78, 2.17, 1.82, 7.90, repro,
2002-06-20,2.56, 1.33, 13.64, 2.16, 1.78, 7.86, repro,
2002-06-21,1.64, -1.06, 15.87, 2.23, 1.82, 8.04, repro,
2002-06-22,2.67, 1.67, 6.22, 2.19, 1.79, 7.90, repro,
2002-06-23,2.65, -0.21, 12.36, 2.13, 1.71, 7.55, repro,
2002-06-24,2.15, 2.08, 17.94, 2.11, 1.72, 7.61, repro,
2002-06-25,-0.07, -0.20, 35.04, 2.09, 1.71, 7.47, repro,
2002-06-26,1.16, 0.04, 24.75, 2.29, 1.99, 8.45, repro,
2002-06-27,1.34, 0.60, 24.54, 2.28, 2.04, 8.49, repro,
2002-06-28,0.40, -0.55, 22.97, 2.20, 1.84, 7.91, repro,
2002-06-29,1.24, 0.76, 20.10, 2.15, 1.77, 7.70, repro,
2002-06-30,-0.18, 0.81, 24.75, 2.17, 1.82, 7.82, repro,
2002-07-01,1.11, 0.10, 20.95, 2.20, 1.87, 8.08, repro,
2002-07-02,1.72, -0.10, 22.93, 2.18, 1.82, 7.88, repro,
2002-07-03,1.58, 2.59, 18.35, 2.20, 1.82, 7.93, repro,
2002-07-04,3.09, 1.45, 20.05, 2.19, 1.83, 7.89, repro,
2002-07-05,-0.07, -0.27, 26.00, 2.18, 1.82, 7.93, repro,
2002-07-06,0.89, 2.08, 15.27, 2.17, 1.77, 7.71, repro,
2002-07-07,-1.21, 0.45, 23.17, 2.12, 1.72, 7.54, repro,
2002-07-08,1.85, 1.54, 15.21, 2.17, 1.77, 7.81, repro,
2002-07-09,-1.87, 2.32, 30.13, 2.32, 1.97, 8.49, repro,
2002-07-10,-1.81, -1.07, 19.93, 2.19, 1.76, 7.88, repro,
2002-07-11,-0.60, 1.15, 20.95, 2.15, 1.76, 7.73, repro,
2002-07-12,0.59, 2.07, 12.90, 2.22, 1.77, 7.88, repro,
2002-07-13,-1.00, 2.08, 18.85, 2.17, 1.75, 7.63, repro,
2002-07-14,-0.64, 0.21, 26.92, 2.15, 1.73, 7.68, repro,
2002-07-15,-0.21, 2.11, 26.22, 2.27, 1.83, 8.05, repro,
2002-07-16,0.69, 2.78, 30.35, 2.10, 1.70, 7.45, repro,
2002-07-17,0.08, 2.14, 20.35, 2.12, 1.73, 7.51, repro,
2002-07-18,-0.39, 1.23, 23.65, 2.25, 1.86, 8.08, repro,
2002-07-19,1.00, 0.29, 19.14, 2.17, 1.77, 7.84, repro,
2002-07-20,-0.15, 4.13, 27.43, 2.26, 1.86, 8.26, repro,
2002-07-21,-0.68, 0.15, 22.60, 2.19, 1.75, 7.67, repro,
2002-07-22,0.21, 0.34, 21.64, 2.18, 1.80, 7.84, repro,
2002-07-23,1.40, 1.01, 14.59, 2.19, 1.78, 7.81, repro,
2002-07-24,-4.26, 2.21, 20.94, 2.21, 1.80, 7.87, repro,
2002-07-25,0.46, 0.84, 19.16, 2.17, 1.75, 7.69, repro,
2002-07-26,-1.70, -3.03, 29.19, 2.22, 1.80, 7.91, repro,
2002-07-27,-1.20, -4.25, 15.50, 2.15, 1.73, 7.59, repro,
2002-07-28,-0.10, -0.73, 4.66, 2.16, 1.77, 7.77, repro,
2002-07-29,-0.47, -0.75, 16.14, 2.29, 1.83, 8.17, repro,
2002-07-30,0.82, 1.57, 18.14, 2.30, 1.83, 8.24, repro,
2002-07-31,2.53, 1.92, 12.98, 2.46, 2.09, 8.75, repro,
2002-08-01,1.19, 1.29, 14.79, 2.26, 1.78, 7.96, repro,
2002-08-02,0.46, -0.56, 15.10, 2.24, 1.81, 8.01, repro,
2002-08-03,0.51, 0.71, 10.30, 2.25, 1.77, 7.84, repro,
2002-08-04,-1.43, 0.95, 19.28, 2.32, 1.83, 8.23, repro,
2002-08-05,-1.37, 2.67, 17.51, 2.15, 1.78, 7.71, repro,
2002-08-06,-0.76, 0.04, 16.12, 2.18, 1.79, 7.85, repro,
2002-08-07,0.96, 2.20, 21.23, 2.23, 1.80, 7.91, repro,
2002-08-08,-1.84, -1.16, 6.58, 2.14, 1.72, 7.58, repro,
2002-08-09,-0.59, 1.96, 7.53, 2.32, 1.80, 8.16, repro,
2002-08-10,-0.34, -1.33, 17.64, 2.19, 1.76, 7.71, repro,
2002-08-11,0.53, -0.70, 15.98, 2.26, 1.80, 8.01, repro,
2002-08-12,0.08, 1.63, 16.79, 2.32, 1.83, 8.29, repro,
2002-08-13,-0.65, 1.39, 11.65, 2.32, 1.88, 8.31, repro,
2002-08-14,0.50, -1.28, 7.36, 2.28, 1.80, 8.07, repro,
2002-08-15,1.07, 0.63, 17.56, 2.22, 1.78, 7.98, repro,
2002-08-16,-1.40, 2.70, 16.73, 2.20, 1.84, 7.95, repro,
2002-08-17,-0.43, 1.56, 18.76, 2.19, 1.81, 7.87, repro,
2002-08-18,-1.61, 5.60, 9.74, 2.18, 1.82, 7.94, repro,
2002-08-19,0.05, 2.06, 17.51, 2.13, 1.77, 7.78, repro,
2002-08-20,0.16, -1.57, 15.32, 2.09, 1.72, 7.54, repro,
2002-08-21,0.17, 0.27, 17.54, 2.18, 1.80, 7.76, repro,
2002-08-22,-1.58, 0.12, 13.17, 2.12, 1.72, 7.59, repro,
2002-08-23,-1.12, -1.29, 14.35, 2.16, 1.75, 7.81, repro,
2002-08-24,0.51, 0.17, 13.12, 2.18, 1.82, 7.87, repro,
2002-08-25,0.30, 0.70, 11.26, 2.15, 1.81, 7.93, repro,
2002-08-26,-0.47, -1.08, 15.04, 2.15, 1.81, 7.90, repro,
2002-08-27,-0.69, 1.96, 21.66, 2.11, 1.76, 7.67, repro,
2002-08-28,-0.85, 1.37, 16.40, 2.11, 1.75, 7.61, repro,
2002-08-29,1.05, 0.50, 7.40, 2.10, 1.71, 7.56, repro,
2002-08-30,-0.39, -0.51, 10.47, 2.17, 1.76, 7.77, repro,
2002-08-31,0.23, 1.56, 10.05, 2.23, 1.88, 8.12, repro,
2002-09-01,-0.28, -0.48, 9.40, 2.12, 1.76, 7.70, repro,
2002-09-02,0.24, -0.12, 6.39, 2.08, 1.69, 7.39, repro,
2002-09-03,-0.39, 1.34, 22.05, 2.13, 1.73, 7.54, repro,
2002-09-04,-0.66, -0.54, 9.37, 2.16, 1.75, 7.78, repro,
2002-09-05,0.60, 0.68, 17.05, 2.12, 1.75, 7.62, repro,
2002-09-06,0.69, 1.62, 18.79, 2.17, 1.72, 7.60, repro,
2002-09-07,-1.39, -0.12, 14.67, 2.13, 1.78, 7.76, repro,
2002-09-08,-0.85, -0.63, 22.02, 2.17, 1.78, 7.68, repro,
2002-09-09,-0.81, -2.32, 23.41, 2.16, 1.82, 7.74, repro,
2002-09-10,0.19, 0.61, 20.59, 2.09, 1.71, 7.53, repro,
2003-01-01,-1.68, 2.78, 16.38, 2.36, 2.01, 8.35, repro,
2003-01-02,-2.31, 2.32, 6.83, 2.36, 1.92, 8.38, repro,
2003-01-03,-0.61, 0.70, 0.93, 2.66, 2.14, 9.35, repro,
2003-01-04,-1.09, 5.97, -2.13, 2.45, 1.96, 8.59, repro,
2003-01-05,-0.46, 2.43, 6.88, 2.45, 2.07, 8.80, repro,
2003-01-06,-1.64, 4.41, 12.96, 2.40, 2.05, 8.82, repro,
2003-01-07,-2.07, 3.60, 16.21, 2.30, 2.00, 8.71, repro,
2003-01-08,-0.89, 2.94, 20.76, 2.29, 1.95, 8.39, repro,
2003-01-09,-0.35, 2.97, 19.27, 2.31, 1.92, 8.35, repro,
2003-01-10,-1.26, 3.86, 12.64, 2.28, 1.90, 8.09, repro,
2003-01-11,-2.24, 3.48, 23.18, 2.20, 1.84, 7.84, repro,
2003-01-12,-2.15, 0.37, 19.00, 2.21, 1.84, 7.85, repro,
2003-01-13,-0.12, 2.59, 1.46, 2.25, 1.84, 7.90, repro,
2003-01-14,-0.17, 4.07, -2.88, 2.21, 1.84, 7.83, repro,
2003-01-15,-2.63, 1.83, 15.41, 2.21, 1.83, 7.79, repro,
2003-01-16,-3.03, 0.62, 11.06, 2.29, 1.90, 8.05, repro,
2003-01-17,-0.65, 1.68, 16.01, 2.42, 1.93, 8.45, repro,
2003-01-18,-1.42, 0.18, 15.53, 2.42, 1.93, 8.50, repro,
2003-01-19,-2.29, 1.59, 15.61, 2.35, 1.87, 8.31, repro,
2003-01-20,-1.73, 0.29, 14.21, 2.35, 1.87, 8.33, repro,
2003-01-21,-1.28, 1.66, 6.61, 2.40, 1.93, 8.42, repro,
2003-01-22,-0.65, 0.64, 4.43, 2.44, 1.94, 8.69, repro,
2003-01-23,-1.12, 1.85, 7.23, 2.68, 2.04, 9.28, repro,
2003-01-24,-1.45, 0.69, 2.19, 2.38, 1.89, 8.28, repro,
2003-01-25,-0.42, 0.57, 3.14, 2.32, 1.97, 8.28, repro,
2003-01-26,-0.28, 1.22, 10.53, 2.26, 1.87, 8.06, repro,
2003-01-27,-2.83, 2.53, 3.35, 2.54, 2.21, 8.96, repro,
2003-01-28,-1.47, 1.04, 6.26, 2.51, 2.17, 9.17, repro,
2003-01-29,0.60, 2.74, 7.24, 2.39, 2.01, 8.68, repro,
2003-01-30,-1.75, -0.14, 14.93, 2.58, 2.21, 9.41, repro,
2003-01-31,-0.98, 0.11, 8.13, 2.36, 2.05, 8.88, repro,
2003-02-01,-1.38, 5.02, 7.13, 2.28, 1.93, 8.17, repro,
2003-02-02,-2.72, 0.56, 29.33, 2.27, 1.85, 8.07, repro,
2003-02-03,-2.50, 1.14, 26.72, 2.87, 2.44, 10.40, repro,
2003-02-11,2.14, 1.47, 10.39, 5.14, 4.23, 19.40, repro,
2003-02-12,-1.00, 1.83, 11.21, 2.21, 1.85, 7.96, repro,
2003-02-13,-2.27, -0.72, 12.27, 2.30, 1.84, 8.03, repro,
2003-02-14,0.60, -2.35, 1.36, 2.24, 1.87, 8.23, repro,
2003-02-15,-1.98, -1.42, 16.58, 2.33, 1.99, 8.50, repro,
2003-02-16,-4.22, 0.55, 30.51, 2.49, 2.16, 9.21, repro,
2003-02-17,-4.46, -2.53, 24.08, 2.68, 2.22, 9.31, repro,
2003-02-18,-5.06, -0.35, 32.49, 2.57, 2.19, 9.23, repro,
2003-02-19,-3.22, 0.89, 22.52, 2.25, 1.82, 7.89, repro,
2003-02-20,-2.03, 0.32, 14.80, 2.15, 1.81, 7.83, repro,
2003-02-21,-3.56, -1.18, 17.55, 2.12, 1.76, 7.76, repro,
2003-02-22,-2.74, 0.42, 33.91, 2.14, 1.79, 7.70, repro,
2003-02-23,-3.47, 1.41, 30.22, 2.23, 1.80, 7.76, repro,
2003-02-24,-3.19, -0.10, 29.82, 2.23, 1.82, 7.81, repro,
2003-02-25,-5.20, 0.88, 30.43, 2.15, 1.76, 7.76, repro,
2003-02-26,-3.24, -0.00, 27.41, 2.11, 1.73, 7.61, repro,
2003-02-27,-3.28, -0.73, 16.48, 2.27, 1.92, 8.20, repro,
2003-02-28,-5.54, -1.64, 31.13, 2.12, 1.73, 7.69, repro,
2003-03-01,-6.24, -2.27, 30.20, 2.20, 1.78, 7.73, repro,
2003-03-02,-4.97, -1.07, 21.85, 2.20, 1.78, 7.70, repro,
2003-03-03,-4.83, -2.14, 32.22, 2.15, 1.78, 7.69, repro,
2003-03-04,-4.47, 0.45, 32.54, 2.19, 1.79, 7.90, repro,
2003-03-05,-2.97, -0.98, 34.65, 2.18, 1.75, 7.67, repro,
2003-03-06,-3.12, 2.05, 27.32, 2.12, 1.73, 7.64, repro,
2003-03-07,-3.22, -0.22, 29.68, 2.31, 1.90, 8.33, repro,
2003-03-08,-1.82, 0.82, 17.63, 2.30, 1.89, 8.38, repro,
2003-03-09,-1.34, 3.48, 16.37, 2.12, 1.73, 7.60, repro,
2003-03-10,-2.71, 2.83, 7.69, 2.33, 1.87, 8.20, repro,
2003-03-11,-3.03, 2.69, 15.73, 2.16, 1.74, 7.66, repro,
2003-03-12,-1.70, 3.14, 16.66, 2.36, 1.88, 8.11, repro,
2003-03-13,-1.35, 0.49, 24.38, 2.23, 1.80, 7.89, repro,
2003-03-14,-2.40, -0.80, 23.44, 2.26, 1.79, 7.72, repro,
2003-03-15,-1.28, -1.48, 22.29, 2.27, 1.80, 7.83, repro,
2003-03-16,0.10, 0.98, 30.52, 2.23, 1.79, 7.82, repro,
2003-03-17,-0.09, 0.60, 42.72, 2.29, 1.84, 8.07, repro,
2003-03-18,-3.07, -1.68, 40.46, 2.18, 1.76, 7.63, repro,
2003-03-19,7.06, 9.04, 59.10, 5.85, 5.05, 19.39, repro,
2003-03-20,-5.26, 3.80, 59.75, 2.29, 1.84, 8.18, repro,
2003-03-21,-3.50, 1.47, 65.14, 2.19, 1.75, 7.73, repro,
2003-03-22,-2.52, 3.21, 41.15, 2.31, 1.83, 8.24, repro,
2003-03-23,14.19, 4.65, 49.86, 2.53, 1.91, 8.99, repro,
2003-03-24,12.96, 3.09, 66.97, 2.29, 1.80, 8.09, repro,
2003-03-25,15.73, 2.39, 58.34, 2.31, 1.85, 8.20, repro,
2003-03-26,28.38, 1.85, 60.53, 2.25, 1.79, 8.11, repro,
2003-03-27,35.25, 2.61, 48.87, 2.30, 1.86, 8.35, repro,
2003-03-28,36.92, 1.45, 64.91, 2.26, 1.80, 8.05, repro,
2003-03-29,40.48, 2.43, 40.08, 2.27, 1.81, 7.98, repro,
2003-03-30,28.29, 1.50, 49.39, 2.24, 1.76, 7.83, repro,
2003-03-31,29.47, -1.79, 64.01, 2.25, 1.77, 8.05, repro,
2003-04-01,38.34, 1.50, 46.91, 2.29, 1.84, 8.31, repro,
2003-04-02,47.48, 5.02, 35.59, 2.21, 1.77, 7.92, repro,
2003-04-03,46.98, 5.14, 40.42, 2.24, 1.79, 8.04, repro,
2003-04-04,47.90, 5.10, 33.98, 2.24, 1.78, 7.98, repro,
2003-04-05,46.92, 5.87, 35.91, 2.21, 1.76, 7.98, repro,
2003-04-06,47.72, 4.01, 30.85, 2.18, 1.78, 7.92, repro,
2003-04-07,49.16, 4.93, 31.14, 2.17, 1.76, 7.94, repro,
2003-04-08,45.61, 6.04, 34.92, 2.16, 1.76, 7.84, repro,
2003-04-09,38.90, 7.35, 49.11, 2.22, 1.81, 8.15, repro,
2003-04-10,27.04, 7.34, 61.43, 2.22, 1.82, 8.19, repro,
2003-04-11,22.00, 9.18, 64.29, 2.17, 1.76, 7.90, repro,
2003-04-12,17.75, 6.41, 64.31, 2.16, 1.76, 7.90, repro,
2003-04-13,17.71, 6.12, 73.20, 2.18, 1.75, 7.93, repro,
2003-04-14,43.46, -2.60, 49.00, 2.15, 1.73, 7.74, repro,
2003-04-15,42.04, 2.63, 25.18, 2.13, 1.70, 7.63, repro,
2003-04-16,34.28, -0.14, 24.37, 2.11, 1.71, 7.70, repro,
2003-04-17,30.96, 6.69, 15.32, 2.13, 1.74, 7.79, repro,
2003-04-18,26.27, 4.27, 18.80, 2.12, 1.74, 7.74, repro,
2003-04-19,26.14, 5.02, 28.13, 2.08, 1.69, 7.53, repro,
2003-04-20,26.89, 3.60, 30.22, 2.10, 1.73, 7.71, repro,
2003-04-21,26.14, 3.06, 25.66, 2.10, 1.70, 7.67, repro,
2003-04-22,24.35, 4.07, 35.20, 2.24, 1.84, 8.16, repro,
2003-07-02,-2093063.74, 29488559.45, -1922458.50, 92.34, 676.05, 292.29, repro,
2003-07-03,-2091242.74, 29475201.45, -1926318.50, 21.01, 15.04, 70.68, repro,
2003-07-04,-2092016.74, 29474921.45, -1927420.49, 65.23, 128.49, 164.16, repro,
2003-07-05,-2091383.74, 29475534.45, -1928600.49, 33.91, 21.09, 68.93, repro,
2003-07-06,-2092885.74, 29475354.45, -1930233.49, 60.55, 123.91, 146.18, repro,
2003-07-07,-2092694.74, 29476718.45, -1930799.48, 32.93, 21.69, 66.02, repro,
2003-07-08,-2093130.74, 29474672.46, -1933044.48, 172.99, 211.73, 421.45, repro,
2003-07-09,0.70, -2.39, 8.21, 4.20, 3.60, 15.71, repro,
2003-07-10,1.01, 0.28, 5.27, 2.12, 1.71, 7.59, repro,
2003-07-11,2.48, 0.79, 11.39, 2.39, 1.82, 8.39, repro,
2003-07-12,1.04, 2.17, 16.55, 2.13, 1.69, 7.54, repro,
2003-07-13,1.52, 1.78, 13.25, 2.30, 1.79, 8.03, repro,
2003-07-14,1.00, -0.72, 10.44, 2.15, 1.72, 7.68, repro,
2003-07-15,1.72, 1.50, 6.70, 2.23, 1.83, 7.95, repro,
2003-07-16,3.45, -0.08, 13.01, 2.21, 1.75, 7.78, repro,
2003-07-17,1.52, 1.36, 10.16, 2.33, 1.85, 8.23, repro,
2003-07-18,1.06, 1.46, 17.10, 2.31, 1.87, 8.13, repro,
2003-07-19,3.16, 1.43, 10.07, 2.15, 1.71, 7.61, repro,
2003-07-20,1.81, 0.64, 14.49, 2.22, 1.79, 7.94, repro,
2003-07-21,0.97, 1.91, 12.26, 2.19, 1.79, 7.86, repro,
2003-07-22,0.97, 0.74, 8.88, 2.27, 1.77, 7.87, repro,
2003-07-23,1.33, -0.38, 11.67, 2.18, 1.70, 7.61, repro,
2003-07-24,2.89, -0.55, 13.67, 2.14, 1.69, 7.52, repro,
2003-07-25,0.84, 0.14, 13.79, 2.22, 1.77, 7.86, repro,
2003-07-26,1.77, -0.52, 12.90, 2.25, 1.77, 7.89, repro,
2003-07-27,1.71, -0.18, 11.09, 2.25, 1.78, 7.98, repro,
2003-07-28,0.23, 1.12, 12.45, 2.22, 1.76, 7.83, repro,
2003-07-29,0.21, 0.05, 19.44, 2.37, 1.97, 8.55, repro,
2003-07-30,1.71, 0.01, 14.33, 2.17, 1.76, 7.81, repro,
2003-07-31,-0.39, 0.71, 15.51, 2.15, 1.73, 7.63, repro,
2003-08-01,3.44, -2.95, 2.26, 2.28, 1.82, 8.12, repro,
2003-08-02,1.19, 0.37, 9.35, 2.17, 1.76, 7.71, repro,
2003-08-03,1.25, 1.04, 23.69, 2.26, 1.78, 8.00, repro,
2003-08-04,5.10, -2.97, 9.36, 2.19, 1.81, 7.91, repro,
2003-08-05,1.44, 1.61, 19.64, 2.16, 1.76, 7.78, repro,
2003-08-06,0.76, 0.83, 9.05, 2.14, 1.72, 7.66, repro,
2003-08-07,0.17, 1.71, 8.82, 2.24, 1.82, 8.00, repro,
2003-08-08,0.77, 0.72, 12.62, 2.10, 1.66, 7.40, repro,
2003-08-09,1.23, 0.73, 15.74, 2.11, 1.71, 7.55, repro,
2003-08-10,0.71, 0.75, 11.45, 2.16, 1.75, 7.79, repro,
2003-08-11,1.14, 1.27, 17.95, 2.20, 1.84, 7.98, repro,
2003-08-12,1.35, 2.42, 14.24, 2.13, 1.72, 7.62, repro,
2003-08-13,1.83, 1.41, 10.23, 2.14, 1.71, 7.60, repro,
2003-08-14,-0.88, 1.32, 12.17, 2.15, 1.74, 7.68, repro,
2003-08-15,1.92, 1.48, 13.43, 2.23, 1.79, 7.96, repro,
2003-08-16,1.21, 1.22, 11.86, 2.16, 1.76, 7.77, repro,
2003-08-17,0.21, 1.37, 13.84, 2.08, 1.67, 7.36, repro,
2003-08-18,1.55, -1.60, 13.59, 2.12, 1.71, 7.59, repro,
2003-08-19,-0.05, -2.90, 9.75, 2.10, 1.71, 7.57, repro,
2003-08-20,1.79, -0.55, 12.36, 2.16, 1.74, 7.68, repro,
2003-08-21,1.55, 0.85, 19.27, 2.12, 1.72, 7.64, repro,
2003-08-22,1.24, 0.58, 17.05, 2.17, 1.77, 7.70, repro,
2003-08-23,0.92, 1.00, 12.05, 2.17, 1.74, 7.72, repro,
2003-08-24,-1.07, 0.40, 15.15, 2.23, 1.77, 7.74, repro,
2003-08-25,-0.72, 0.52, 27.32, 2.15, 1.76, 7.64, repro,
2003-08-26,1.02, -0.31, 16.88, 2.11, 1.70, 7.49, repro,
2003-08-27,1.01, -0.05, 12.56, 2.24, 1.79, 7.82, repro,
2003-08-28,2.03, -0.13, 5.46, 2.17, 1.75, 7.79, repro,
2003-08-29,0.37, 1.09, 17.80, 2.16, 1.71, 7.60, repro,
2003-08-30,2.13, 0.85, 21.88, 2.31, 1.79, 8.23, repro,
2003-08-31,0.13, -3.94, 14.95, 2.12, 1.69, 7.54, repro,
2003-09-01,-0.33, 2.38, 25.52, 2.13, 1.72, 7.58, repro,
2003-09-02,1.77, 0.94, 15.47, 2.11, 1.68, 7.50, repro,
2003-09-03,1.91, 0.03, 18.58, 2.15, 1.70, 7.53, repro,
2003-09-04,-0.53, 0.44, 14.47, 2.23, 1.75, 7.67, repro,
2003-09-05,0.41, 0.20, 21.39, 2.20, 1.69, 7.63, repro,
2003-09-06,0.02, 1.23, 27.42, 2.16, 1.73, 7.56, repro,
2003-09-07,-0.83, 0.90, 26.21, 2.09, 1.66, 7.32, repro,
2003-09-08,0.47, 0.91, 21.17, 2.18, 1.70, 7.59, repro,
2003-09-09,5.62, -2.99, 18.91, 6.38, 5.13, 21.19, repro,
2003-09-23,0.44, 0.72, -1.22, 6.19, 4.33, 20.88, repro,
2003-09-24,-0.03, -0.84, 21.10, 2.20, 1.75, 7.70, repro,
2003-09-25,2.28, -2.79, 12.52, 2.21, 1.74, 7.65, repro,
2003-09-26,0.62, -2.69, 11.35, 2.31, 1.80, 7.84, repro,
2003-09-27,-0.72, -1.99, 15.50, 2.33, 1.81, 7.93, repro,
2003-09-28,1.86, 0.42, 10.15, 2.32, 1.82, 7.94, repro,
2003-09-29,1.59, 1.81, 14.10, 2.25, 1.80, 7.83, repro,
2003-09-30,1.43, 1.83, 14.15, 2.28, 1.81, 7.96, repro,
2003-10-01,-0.81, -1.56, 15.95, 2.28, 1.83, 7.94, repro,
2003-10-02,0.64, -1.34, 17.41, 2.26, 1.78, 7.76, repro,
2003-10-03,1.54, -0.06, 24.04, 2.29, 1.79, 7.88, repro,
2003-10-04,3.26, 0.11, 23.35, 2.23, 1.77, 7.79, repro,
2003-10-05,0.83, 0.53, 26.59, 2.18, 1.75, 7.66, repro,
2003-10-06,0.74, 1.82, 22.00, 2.23, 1.80, 7.84, repro,
2003-10-07,1.28, -0.59, 25.44, 2.41, 1.89, 8.16, repro,
2003-10-08,0.57, -1.59, 23.02, 2.27, 1.77, 7.96, repro,
2003-10-09,0.56, -1.16, 15.84, 2.24, 1.79, 7.76, repro,
2003-10-10,2.10, -1.65, 22.83, 2.19, 1.75, 7.66, repro,
2003-10-11,0.42, 0.06, 25.90, 2.23, 1.80, 7.86, repro,
2003-10-12,0.69, -2.07, 4.11, 2.32, 1.83, 8.05, repro,
2003-10-13,1.27, 1.07, 19.35, 2.25, 1.74, 7.65, repro,
2003-10-14,-0.82, -0.40, 19.25, 2.28, 1.78, 7.91, repro,
2003-10-15,2.59, -0.35, 23.31, 2.16, 1.78, 7.64, repro,
2003-10-16,1.34, 1.18, 20.47, 2.08, 1.72, 7.58, repro,
2003-10-17,1.51, -3.09, 4.92, 2.20, 1.76, 7.73, repro,
2003-10-18,1.45, -2.09, 17.13, 2.11, 1.72, 7.47, repro,
2003-10-19,1.21, -0.38, 15.71, 2.11, 1.72, 7.47, repro,
2003-10-20,0.66, -0.29, 21.33, 2.16, 1.79, 7.61, repro,
2003-10-21,2.00, -1.02, 14.28, 2.12, 1.73, 7.54, repro,
2003-10-22,1.17, -0.15, 21.06, 2.20, 1.81, 7.76, repro,
2003-10-23,2.28, -0.48, 13.49, 2.21, 1.73, 7.71, repro,
2003-10-24,3.00, -0.63, 9.80, 2.20, 1.77, 7.75, repro,
2003-10-25,2.20, 0.86, 20.43, 2.18, 1.76, 7.80, repro,
2003-10-26,2.24, 0.20, 16.43, 2.17, 1.80, 7.85, repro,
2003-10-27,-0.28, -2.13, 17.30, 2.10, 1.69, 7.50, repro,
2003-10-28,1.07, -1.06, 15.12, 2.09, 1.69, 7.52, repro,
2003-10-29,3.66, -1.44, 21.40, 2.37, 1.89, 8.82, repro,
2003-10-30,0.89, 1.30, 23.04, 2.46, 1.94, 8.66, repro,
2003-10-31,1.10, 2.40, 19.65, 2.26, 1.79, 7.86, repro,
2003-11-01,1.64, 3.40, 18.27, 2.12, 1.69, 7.47, repro,
2003-11-02,2.78, 0.47, 19.46, 2.09, 1.68, 7.36, repro,
2003-11-03,2.88, -1.00, 15.42, 2.16, 1.70, 7.67, repro,
2003-11-04,1.88, -0.28, 11.67, 2.13, 1.69, 7.62, repro,
2003-11-05,0.52, -0.37, 15.15, 2.11, 1.69, 7.47, repro,
2003-11-06,0.73, -0.76, 15.92, 2.14, 1.70, 7.55, repro,
2003-11-07,0.11, -5.56, 6.83, 2.12, 1.69, 7.50, repro,
2003-11-08,0.15, -5.21, 1.24, 2.15, 1.76, 7.72, repro,
2003-11-09,0.43, 1.29, 11.81, 2.09, 1.71, 7.47, repro,
2003-11-10,-0.61, 0.66, 17.05, 2.33, 1.96, 8.61, repro,
2003-11-11,-1.37, -0.35, 33.07, 2.17, 1.74, 7.72, repro,
2003-11-12,0.62, -1.67, 18.69, 2.25, 1.76, 8.05, repro,
2003-11-13,0.60, 0.26, 21.22, 2.31, 1.78, 8.28, repro,
2003-11-14,-1.17, -0.56, 31.05, 2.29, 1.76, 8.11, repro,
2003-11-15,-0.16, -1.46, 17.80, 2.13, 1.71, 7.39, repro,
2003-11-16,0.53, 0.57, 28.40, 2.26, 1.81, 8.01, repro,
2003-11-17,1.15, -0.45, 26.30, 2.28, 1.84, 8.13, repro,
2003-11-18,2.55, -3.17, 13.18, 2.25, 1.84, 8.07, repro,
2003-11-19,2.14, -3.07, 18.94, 2.23, 1.84, 8.04, repro,
2003-11-20,2.08, 2.16, 21.04, 2.25, 1.85, 8.15, repro,
2003-11-21,1.42, 1.91, 25.33, 2.23, 1.87, 7.93, repro,
2003-11-22,2.39, 0.99, 19.09, 2.25, 1.92, 8.12, repro,
2003-11-23,2.55, -2.02, 2.93, 2.29, 1.88, 8.17, repro,
2003-11-24,0.57, -0.72, 15.46, 2.14, 1.75, 7.52, repro,
2003-11-25,-0.93, 0.16, 19.67, 2.33, 1.95, 8.53, repro,
2003-11-26,-2.38, -0.99, 31.38, 2.10, 1.75, 7.57, repro,
2003-11-27,-1.49, -1.96, 14.11, 2.11, 1.75, 7.56, repro,
2003-11-28,-3.43, -1.47, -0.14, 2.27, 1.86, 8.13, repro,
2003-11-29,-1.27, -2.75, 12.67, 2.23, 1.87, 8.16, repro,
2003-11-30,-0.35, 2.68, -14.09, 2.14, 1.74, 7.60, repro,
2003-12-01,-1.86, 1.20, 13.10, 2.19, 1.80, 7.79, repro,
2003-12-02,-0.50, -0.36, -0.72, 2.26, 1.86, 8.27, repro,
2003-12-03,-0.61, 1.39, 7.68, 2.27, 1.87, 8.21, repro,
2003-12-04,1.51, 1.98, 3.65, 2.24, 1.95, 8.42, repro,
2003-12-05,-0.64, 2.60, 12.07, 2.12, 1.75, 7.63, repro,
2003-12-06,0.40, 2.88, -6.68, 2.25, 1.90, 8.00, repro,
2003-12-07,-0.18, 3.49, 6.44, 2.21, 1.79, 7.76, repro,
2003-12-08,0.67, 1.10, 22.79, 2.25, 1.83, 7.86, repro,
2003-12-09,1.00, -1.18, 22.63, 2.24, 1.85, 7.88, repro,
2003-12-10,-1.05, 0.70, 17.16, 2.12, 1.77, 7.74, repro,
2003-12-11,-0.44, -0.32, 16.21, 2.25, 1.86, 8.25, repro,
2003-12-12,-2.15, -0.10, 22.20, 2.16, 1.77, 7.79, repro,
2003-12-13,-1.10, 2.11, 17.48, 2.18, 1.77, 7.78, repro,
2003-12-14,-0.05, 3.17, 12.25, 2.19, 1.81, 7.78, repro,
2003-12-15,-0.51, -0.64, 19.03, 2.15, 1.80, 7.92, repro,
2003-12-16,-0.79, -0.30, 14.04, 2.26, 1.94, 8.31, repro,
2003-12-17,-1.06, 1.16, 8.61, 2.28, 1.93, 8.27, repro,
2003-12-18,-2.31, 1.29, 5.67, 2.26, 1.91, 8.28, repro,
2003-12-19,0.80, 1.44, 0.43, 2.20, 1.80, 7.96, repro,
2003-12-20,0.71, -0.75, -3.96, 2.27, 1.85, 8.04, repro,
2003-12-21,2.86, 3.65, 9.10, 2.33, 1.93, 8.42, repro,
2003-12-22,-0.90, 1.22, 14.55, 2.13, 1.75, 7.69, repro,
2003-12-23,-1.82, 0.80, 12.97, 2.29, 1.90, 8.18, repro,
2003-12-24,-0.93, 4.54, 11.39, 2.25, 1.88, 8.21, repro,
2003-12-25,0.83, 0.21, 9.55, 2.21, 1.82, 8.03, repro,
2003-12-26,0.17, 1.33, 13.86, 2.18, 1.79, 7.99, repro,
2003-12-27,-0.36, 0.44, 10.25, 2.24, 1.88, 8.15, repro,
2003-12-28,-0.65, 0.84, 14.25, 2.11, 1.70, 7.65, repro,
2003-12-29,-0.49, 0.95, 8.82, 2.12, 1.69, 7.62, repro,
2003-12-30,-1.13, -0.09, 21.44, 2.16, 1.77, 7.83, repro,